sat.trackr.live / text

‹ back to catalog

QIANFAN-76

NORAD 63162 · 2025-046D

PAYLOAD ACTIVE UNKNOWN

§ Identity

Operator
Country
PRC
Launch date
2025-03-11
Launch site
WSC
Launch vehicle
Mass (kg)
RCS (m²)

External: N2YO · Heavens-Above · Gunter

§ Orbital elements

Epoch: 2026-09-22T21:36:08.852544Z

Period
106.59 min
Inclination
88.9640°
Eccentricity
0.0014478
Mean motion
13.51020580 rev/d
Perigee alt
1,057.7 km
Apogee alt
1,079.3 km
Semi-major
7,446.6 km
B*
-1.3599e-4
RAAN
290.6218°
Arg perigee
34.0062°
Mean anomaly
326.2014°
Rev number
8,572

§ Raw data

QIANFAN-761 63162U 25046D   26265.90010246 -.00000076  00000+0 -13599-3 0  99922 63162  88.9640 290.6218 0014478  34.0062 326.2014 13.51020580 85727

JSON: /api/v1/satellites/63162 · /tle

For live sub-satellite position, see the globe view (requires WebGL).

§ Visibility from observer

Set your observer location to see the next 7 days of passes ≥ 10°. The values pass through the URL so the page stays shareable.

No JS? Fill the form by hand. The geolocation button needs JavaScript.